Regional Weather Roundup
Issued by NWS

Home | Current Version | Previous Version | Text Only | Print | Product List | Glossary On
Versions: 1 2 3 4 5 6 7 8 9 10 11 12 13 14 15 16 17 18 19 20 21 22 23 24 25 26 27 28 29 30 31 32 33 34 35 36 37 38 39 40 41 42 43 44 45 46 47 48 49 50
000
ASUS43 KDTX 301810
RWRMI
MICHIGAN HOURLY REGIONAL WEATHER ROUNDUP
NATIONAL WEATHER SERVICE DETROIT/PONTIAC MI
200 PM EDT FRI SEP 30 2016

NOTE: "FAIR" INDICATES FEW OR NO CLOUDS BELOW 12,000 FEET WITH NO
SIGNIFICANT WEATHER AND/OR OBSTRUCTION TO VISIBILITY.

MIZ047>049-052>055-059>063-066>070-074>076-081>083-301900-
SOUTHEAST LOWER MICHIGAN

CITY           SKY/WX    TMP DP  RH WIND       PRES   REMARKS
ADRIAN         CLOUDY    63  60  90 E14       30.13S
6HR MIN TEMP:  61; 6HR MAX TEMP:  63;

ALMA           CLOUDY    60  60  99 NE8G20    30.22S FOG
ANN ARBOR      LGT RAIN  60  60 100 N7        30.14S FOG
BAD AXE        CLOUDY    60  58  94 E6        30.23F
6HR MIN TEMP:  58; 6HR MAX TEMP:  61;

CARO           DRIZZLE   59  58  97 NE5       30.21F
DETROIT CITY   LGT RAIN  59  59 100 NE9       30.15F FOG
6HR MIN TEMP:  59; 6HR MAX TEMP:  60; 6HR PCP:  0.05;

DETROIT        LGT RAIN  61  60  97 NE7       30.15F VSB 1
6HR MIN TEMP:  61; 6HR MAX TEMP:  64; 6HR PCP:  0.05;

FLINT          CLOUDY    60  58  92 NE12      30.19F
6HR MIN TEMP:  58; 6HR MAX TEMP:  60;

GROSSE ILE     CLOUDY    64  58  83 E8        30.13F
6HR MIN TEMP:  62; 6HR MAX TEMP:  64;

HILLSDALE      CLOUDY    61  59  94 NE10      30.11F
HOWELL         CLOUDY    59  58  97 NE9       30.17F FOG
6HR MIN TEMP:  58; 6HR MAX TEMP:  59;


CITY           SKY/WX    TMP DP  RH WIND       PRES   REMARKS
JACKSON        CLOUDY    61  60  97 NE13      30.14F
6HR MIN TEMP:  59; 6HR MAX TEMP:  61; 6HR PCP:  0.04;

LAMBERTVILLE   LGT RAIN  65  59  82 E8        30.12S
6HR MIN TEMP:  64; 6HR MAX TEMP:  68;

LANSING        CLOUDY    59  56  89 NE12      30.18F
6HR MIN TEMP:  58; 6HR MAX TEMP:  60; 6HR PCP:  0.01;

LAPEER         LGT RAIN  59  57  94 NE6       30.20F
6HR MIN TEMP:  57; 6HR MAX TEMP:  59;

MASON          CLOUDY    59  57  94 NE9       30.16F
MONROE         CLOUDY    64  60  86 E8        30.11F
MT. CLEMENS    LGT RAIN  60  60 100 NE8       30.14F FOG
6HR MIN TEMP:  58; 6HR MAX TEMP:  60; 6HR PCP:  0.02;

PONTIAC        DRIZZLE   59  57  93 NE8       30.16F FOG
6HR MIN TEMP:  57; 6HR MAX TEMP:  59; 6HR PCP:  0.01;

PORT HURON     RAIN      59  59 100 NE6       30.18F
TRI CITIES     CLOUDY    60  58  92 NE13      30.23F FOG
6HR MIN TEMP:  59; 6HR MAX TEMP:  61; 6HR PCP: TRACE;

MIDLAND        CLOUDY    60  58  95 NE10      30.22F FOG
6HR MIN TEMP:  59; 6HR MAX TEMP:  61; 6HR PCP:  0.01;

TROY           DRIZZLE   60  58  93 NE9       30.17F
SAGINAW HB     CLOUDY    61  55  82 NE10      30.21F
$$
MIZ043>046-050>051-056>058-064>065-071>073-077>080-301900-
SOUTHWEST LOWER MICHIGAN

CITY           SKY/WX    TMP DP  RH WIND       PRES   REMARKS
BATTLE CREEK   CLOUDY    61  59  93 NE9       30.14F
6HR MIN TEMP:  59; 6HR MAX TEMP:  62; 6HR PCP: TRACE;

BENTON HARBOR  CLOUDY    68  59  73 E9        30.11F
6HR MIN TEMP:  61; 6HR MAX TEMP:  68;

BIG RAPIDS     CLOUDY    60  58  95 NE7       30.22F FOG
6HR MIN TEMP:  58; 6HR MAX TEMP:  60; 6HR PCP:  0.01;

COLDWATER      CLOUDY    63  61  92 NE16G22   30.11F
6HR MIN TEMP:  60; 6HR MAX TEMP:  63;

FREMONT        CLOUDY    60  59  97 NE9       30.20F FOG
HOLLAND        CLOUDY    62  57  83 NE9G17    30.15F
6HR MIN TEMP:  59; 6HR MAX TEMP:  63; 6HR PCP:  0.02;

GRAND RAPIDS   CLOUDY    62  57  83 NE18      30.17F
6HR MIN TEMP:  58; 6HR MAX TEMP:  62; 6HR PCP:  0.06;

IONIA          CLOUDY    58  57  96 NE14      30.17F FOG
6HR MIN TEMP:  57; 6HR MAX TEMP:  58; 6HR PCP:  0.03;

KALAMAZOO      CLOUDY    62  58  86 NE8       30.15S
6HR MIN TEMP:  60; 6HR MAX TEMP:  64; 6HR PCP:  0.01;

LUDINGTON      CLOUDY    63  57  81 NE9G18    30.22F
6HR MIN TEMP:  59; 6HR MAX TEMP:  63;

MARSHALL       CLOUDY    60  60  98 NE5       30.13F
6HR MIN TEMP:  59; 6HR MAX TEMP:  62; 6HR PCP:  0.01;

MOUNT PLEASANT DRIZZLE   60  59  95 NE10      30.22F
6HR MIN TEMP:  58; 6HR MAX TEMP:  60;

MUSKEGON       CLOUDY    63  58  83 NE16      30.18F
6HR MIN TEMP:  59; 6HR MAX TEMP:  63; 6HR PCP:  0.04;

SOUTH HAVEN    CLOUDY    65  60  85 NE9G16    30.12F
$$
MIZ016>042-301900-
NORTHERN LOWER MICHIGAN

CITY           SKY/WX    TMP DP  RH WIND       PRES   REMARKS
ALPENA         CLOUDY    63  54  72 E15G23    30.32F
6HR MIN TEMP:  59; 6HR MAX TEMP:  65;

BEAVER ISLAND  CLOUDY    64  55  72 NE15G25   30.31F
6HR MIN TEMP:  59; 6HR MAX TEMP:  65;

BELLAIRE       CLOUDY    69  56  63 NE13G21   30.25F
6HR MIN TEMP:  60; 6HR MAX TEMP:  69;

CADILLAC       CLOUDY    60  55  86 NE5       30.24F
CHARLEVOIX     CLOUDY    65  55  67 E17G24    30.30F
6HR MIN TEMP:  60; 6HR MAX TEMP:  66;

FRANKFORT      LGT RAIN  64  56  74 E6        30.26F
GAYLORD        CLOUDY    63  54  72 E14G23    30.28F
6HR MIN TEMP:  57; 6HR MAX TEMP:  64;

GRAYLING       CLOUDY    64  56  75 E16G24    30.27F
HARBOR SPRINGS SUNNY     67  55  65 NE15G23   30.29F
HOUGHTON LAKE  CLOUDY    63  56  78 E12       30.25F
6HR MIN TEMP:  57; 6HR MAX TEMP:  63;

MANISTEE       CLOUDY    64  56  75 E15       30.23F
OSCODA         CLOUDY    64  56  75 NE13G21   30.26F
6HR MIN TEMP:  60; 6HR MAX TEMP:  64;

PELLSTON       SUNNY     67  53  61 E18       30.31F
6HR MIN TEMP:  60; 6HR MAX TEMP:  68;

ROGERS CITY    CLOUDY    63  55  75 E10       30.34F
TRAVERSE CITY  CLOUDY    67  56  67 NE9       30.24F
6HR MIN TEMP:  62; 6HR MAX TEMP:  67;

$$
MIZ007>008-015-301900-
EASTERN UPPER MICHIGAN

CITY           SKY/WX    TMP DP  RH WIND       PRES   REMARKS
KINROSS        MOSUNNY   66  51  58 E13G20    30.35F
6HR MIN TEMP:  52; 6HR MAX TEMP:  66;

MACKINAC ISLAN SUNNY     64  54  69 E9        30.33F
NEWBERRY       SUNNY     66  53  63 NE13      30.34F
6HR MIN TEMP:  49; 6HR MAX TEMP:  66;

S. S. MARIE    MOSUNNY   69  51  52 E8        30.35F
6HR MIN TEMP:  54; 6HR MAX TEMP:  69;

MUNISING         N/A     64  57  78 NE17      30.34F
6HR MIN TEMP:  46; 6HR MAX TEMP:  64;

$$
MIZ004>006-011>014-085-301900-
CENTRAL UPPER MICHIGAN

CITY           SKY/WX    TMP DP  RH WIND       PRES   REMARKS
MANISTIQUE     SUNNY     70  52  53 E12       30.32F
6HR MIN TEMP:  49; 6HR MAX TEMP:  71;

ESCANABA       MOSUNNY   69  54  58 NE14      30.31F
6HR MIN TEMP:  56; 6HR MAX TEMP:  69;

MENOMINEE      CLOUDY    62  55  77 E14G23    30.31F
6HR MIN TEMP:  56; 6HR MAX TEMP:  63;

SAWYER-GWINN   PTSUNNY   63  50  63 NE14G22   30.37F
$$
MIZ001>003-009>011-084-301900-
WESTERN UPPER MICHIGAN

CITY           SKY/WX    TMP DP  RH WIND       PRES   REMARKS
IRON MOUNTAIN  PTSUNNY   68  47  46 NE12      30.32F
HOUGHTON       SUNNY     65  54  67 E9        30.39F
6HR MIN TEMP:  52; 6HR MAX TEMP:  66;

COPPER HARBOR    N/A     62  58  86 E7        30.40F
6HR MIN TEMP:  55; 6HR MAX TEMP:  63;

IRONWOOD       MOSUNNY   61  55  81 N9        30.39F
6HR MIN TEMP:  49; 6HR MAX TEMP:  62; 6HR PCP:  0.01;

$$

ABBREVIATIONS USED IN REMARKS
   TC - TEMPERATURE IN CELSIUS
  WCI - WIND CHILL INDEX
   HX - HEAT INDEX
  VSB - VISIBILITY





USA.gov is the U.S. government's official web portal to all federal, state and local government web resources and services.